H1 CPF 2 NER 2024 9 24 9 268 01 glonass134 H2 1407501 9134 40315 2024 9 24 0 0 0 2024 9 27 23 45 0 900 1 1 0 0 0 1 H9 10 0 60577 0.00000 0 3515499.472 13874867.227 -21071366.026 10 0 60577 900.00000 0 1150613.647 12639062.355 -22092078.268 10 0 60577 1800.00000 0 -1385690.509 11533112.400 -22682242.813 10 0 60577 2700.00000 0 -4035434.993 10592715.976 -22830658.656 10 0 60577 3600.00000 0 -6734989.152 9843044.537 -22534756.323 10 0 60577 4500.00000 0 -9417491.382 9297778.621 -21800623.266 10 0 60577 5400.00000 0 -12015406.923 8958648.540 -20642859.688 10 0 60577 6300.00000 0 -14463115.215 8815496.063 -19084269.520 10 0 60577 7200.00000 0 -16699419.730 8846851.608 -17155394.346 10 0 60577 8100.00000 0 -18669877.079 9020999.859 -14893900.895 10 0 60577 9000.00000 0 -20328850.350 9297486.579 -12343835.175 10 0 60577 9900.00000 0 -21641203.440 9629001.249 -9554758.621 10 0 60577 10800.00000 0 -22583568.475 9963555.070 -6580783.479 10 0 60577 11700.00000 0 -23145136.176 10246861.989 -3479526.187 10 0 60577 12600.00000 0 -23327938.843 10424822.540 -310998.786 10 0 60577 13500.00000 0 -23146616.447 10446006.513 2863540.788 10 0 60577 14400.00000 0 -22627677.447 10264030.857 5982758.279 10 0 60577 15300.00000 0 -21808286.431 9839733.902 8986411.078 10 0 60577 16200.00000 0 -20734629.788 9143055.534 11816493.449 10 0 60577 17100.00000 0 -19459927.582 8154545.113 14418338.504 10 0 60577 18000.00000 0 -18042173.905 6866434.151 16741657.200 10 0 60577 18900.00000 0 -16541698.877 5283228.449 18741495.917 10 0 60577 19800.00000 0 -15018652.469 3421793.795 20379095.575 10 0 60577 20700.00000 0 -13530513.529 1310929.826 21622636.770 10 0 60577 21600.00000 0 -12129726.371 -1009552.733 22447857.332 10 0 60577 22500.00000 0 -10861562.277 -3490216.040 22838530.572 10 0 60577 23400.00000 0 -9762294.399 -6073786.078 22786794.662 10 0 60577 24300.00000 0 -8857762.084 -8697279.476 22293325.835 10 0 60577 25200.00000 0 -8162385.022 -11294380.960 21367350.604 10 0 60577 26100.00000 0 -7678669.513 -13797975.204 20026494.783 10 0 60577 27000.00000 0 -7397228.985 -16142729.690 18296470.008 10 0 60577 27900.00000 0 -7297319.612 -18267622.135 16210601.388 10 0 60577 28800.00000 0 -7347870.308 -20118307.229 13809203.139 10 0 60577 29700.00000 0 -7508965.175 -21649223.212 11138812.283 10 0 60577 30600.00000 0 -7733716.922 -22825348.794 8251293.731 10 0 60577 31500.00000 0 -7970452.418 -23623534.964 5202833.294 10 0 60577 32400.00000 0 -8165117.425 -24033353.804 2052838.058 10 0 60577 33300.00000 0 -8263797.374 -24057426.755 -1137233.842 10 0 60577 34200.00000 0 -8215245.254 -23711217.128 -4305089.861 10 0 60577 35100.00000 0 -7973306.835 -23022294.809 -7388840.460 10 0 60577 36000.00000 0 -7499137.430 -22029104.216 -10328230.874 10 0 60577 36900.00000 0 -6763113.279 -20779288.310 -13065840.674 10 0 60577 37800.00000 0 -5746353.884 -19327640.889 -15548225.362 10 0 60577 38700.00000 0 -4441788.648 -17733775.588 -17726975.700 10 0 60577 39600.00000 0 -2854721.187 -16059612.099 -19559672.467 10 0 60577 40500.00000 0 -1002866.653 -14366787.695 -21010717.158 10 0 60577 41400.00000 0 1084139.652 -12714104.816 -22052022.155 10 0 60577 42300.00000 0 3365741.297 -11155123.205 -22663547.336 10 0 60577 43200.00000 0 5791924.579 -9735998.130 -22833673.658 10 0 60577 44100.00000 0 8305084.932 -8493654.878 -22559407.952 10 0 60577 45000.00000 0 10842216.754 -7454374.708 -21846416.687 10 0 60577 45900.00000 0 13337334.502 -6632849.379 -20708889.998 10 0 60577 46800.00000 0 15724023.685 -6031741.099 -19169240.557 10 0 60577 47700.00000 0 17938015.590 -5641763.259 -17257644.936 10 0 60577 48600.00000 0 19919679.254 -5442275.382 -15011437.935 10 0 60577 49500.00000 0 21616328.211 -5402364.283 -12474372.870 10 0 60577 50400.00000 0 22984247.748 -5482363.480 -9695763.080 10 0 60577 51300.00000 0 23990360.407 -5635744.968 -6729521.801 10 0 60577 52200.00000 0 24613462.713 -5811302.499 -3633119.114 10 0 60577 53100.00000 0 24844983.968 -5955533.908 -466475.947 10 0 60577 54000.00000 0 24689237.675 -6015122.258 2709184.081 10 0 60577 54900.00000 0 24163156.940 -5939411.969 5832503.703 10 0 60577 55800.00000 0 23295526.229 -5682776.623 8843160.500 10 0 60577 56700.00000 0 22125742.219 -5206779.909 11683013.697 10 0 60577 57600.00000 0 20702155.500 -4482039.780 14297208.700 10 0 60577 58500.00000 0 19080061.684 -3489718.101 16635219.624 10 0 60577 59400.00000 0 17319424.531 -2222573.339 18651811.282 10 0 60577 60300.00000 0 15482424.399 -685531.495 20307903.523 10 0 60577 61200.00000 0 13630932.392 1104249.999 21571322.309 10 0 60577 62100.00000 0 11824013.571 3117830.289 22417423.823 10 0 60577 63000.00000 0 10115561.591 5315429.102 22829579.789 10 0 60577 63900.00000 0 8552162.081 7647830.639 22799514.312 10 0 60577 64800.00000 0 7171273.067 10058192.318 22327484.852 10 0 60577 65700.00000 0 5999798.195 12484186.443 21422302.358 10 0 60577 66600.00000 0 5053112.850 14860388.563 20101188.267 10 0 60577 67500.00000 0 4334584.854 17120815.441 18389468.888 10 0 60577 68400.00000 0 3835611.200 19201508.360 16320110.665 10 0 60577 69300.00000 0 3536170.788 21043054.559 13933103.027 10 0 60577 70200.00000 0 3405871.371 22592941.104 11274698.727 10 0 60577 71100.00000 0 3405447.642 23807641.546 8396524.841 10 0 60577 72000.00000 0 3488647.796 24654346.063 5354580.829 10 0 60577 72900.00000 0 3604428.567 25112260.325 2208142.943 10 0 60577 73800.00000 0 3699364.836 25173416.282 -981403.075 10 0 60577 74700.00000 0 3720169.949 24842958.811 -4151776.938 10 0 60577 75600.00000 0 3616217.459 24138894.779 -7241040.798 10 0 60577 76500.00000 0 3341954.550 23091314.435 -10188831.884 10 0 60577 77400.00000 0 2859101.788 21741118.142 -12937564.241 10 0 60577 78300.00000 0 2138543.151 20138303.064 -15433573.750 10 0 60577 79200.00000 0 1161823.794 18339883.594 -17628182.017 10 0 60577 80100.00000 0 -77809.677 16407535.115 -19478656.766 10 0 60577 81000.00000 0 -1574871.578 14405062.311 -20949049.043 10 0 60577 81900.00000 0 -3311625.302 12395800.380 -22010890.611 10 0 60577 82800.00000 0 -5258597.583 10440059.679 -22643738.328 10 0 60577 83700.00000 0 -7375596.590 8592721.732 -22835555.863 10 0 60577 84600.00000 0 -9613190.097 6901087.162 -22582926.797 10 0 60577 85500.00000 0 -11914580.733 5403064.679 -21891096.700 10 0 60578 0.00000 0 -14217798.647 4125775.097 -20773845.462 10 0 60578 900.00000 0 -16458120.528 3084625.544 -19253193.602 10 0 60578 1800.00000 0 -18570610.667 2282891.161 -17358951.680 10 0 60578 2700.00000 0 -20492682.428 1711816.143 -15128121.163 10 0 60578 3600.00000 0 -22166571.060 1351228.286 -12604160.999 10 0 60578 4500.00000 0 -23541617.321 1170637.447 -9836134.552 10 0 60578 5400.00000 0 -24576268.206 1130769.369 -6877754.036 10 0 60578 6300.00000 0 -25239713.416 1185468.460 -3786341.065 10 0 60578 7200.00000 0 -25513091.376 1283888.340 -621723.253 10 0 60578 8100.00000 0 -25390216.563 1372877.497 2554912.369 10 0 60578 9000.00000 0 -24877799.552 1399459.859 5682187.882 10 0 60578 9900.00000 0 -23995151.936 1313306.515 8699703.500 10 0 60578 10800.00000 0 -22773389.172 1069095.561 11549185.911 10 0 60578 11700.00000 0 -21254164.775 628661.847 14175595.345 10 0 60578 12600.00000 0 -19487988.059 -37152.894 16528171.569 10 0 60578 13500.00000 0 -17532194.433 -947026.794 18561400.216 10 0 60578 14400.00000 0 -15448651.123 -2108123.448 20235882.270 10 0 60578 15300.00000 0 -13301291.907 -3515540.592 21519091.007 10 0 60578 16200.00000 0 -11153581.339 -5152266.614 22386002.598 10 0 60578 17100.00000 0 -9066011.965 -6989649.092 22819588.469 10 0 60578 18000.00000 0 -7093736.961 -8988358.763 22811159.596 10 0 60578 18900.00000 0 -5284435.467 -11099812.012 22360555.232 10 0 60578 19800.00000 0 -3676498.860 -13267995.982 21476170.983 10 0 60578 20700.00000 0 -2297613.537 -15431623.361 20174823.785 10 0 60578 21600.00000 0 -1163799.936 -17526529.661 18481454.156 10 0 60578 22500.00000 0 -278948.951 -19488214.900 16428669.084 10 0 60578 23400.00000 0 365123.495 -21254424.515 14056132.082 10 0 60578 24300.00000 0 788104.714 -22767661.623 11409810.191 10 0 60578 25200.00000 0 1020119.249 -23977524.567 8541090.906 10 0 60578 26100.00000 0 1100212.839 -24842770.023 5505785.313 10 0 60578 27000.00000 0 1074450.315 -25333012.848 2363036.573 10 0 60578 27900.00000 0 993708.546 -25429988.746 -825844.443 10 0 60578 28800.00000 0 911259.339 -25128324.255 -3998592.360 10 0 60578 29700.00000 0 880246.881 -24435779.650 -7093223.837 10 0 60578 30600.00000 0 951169.304 -23372953.236 -10049271.051 10 0 60578 31500.00000 0 1169474.115 -21972458.922 -12808985.557 10 0 60578 32400.00000 0 1573372.320 -20277612.085 -15318486.661 10 0 60578 33300.00000 0 2191966.511 -18340680.047 -17528829.797 10 0 60578 34200.00000 0 3043774.273 -16220772.452 -19396972.436 10 0 60578 35100.00000 0 4135710.811 -13981462.088 -20886617.693 10 0 60578 36000.00000 0 5462574.518 -11688237.963 -21968918.853 10 0 60578 36900.00000 0 7007057.190 -9405899.043 -22623031.452 10 0 60578 37800.00000 0 8740277.909 -7195998.852 -22836503.087 10 0 60578 38700.00000 0 10622817.206 -5114448.118 -22605494.813 10 0 60578 39600.00000 0 12606206.854 -3209375.081 -21934831.559 10 0 60578 40500.00000 0 14634811.691 -1519331.406 -20837882.544 10 0 60578 41400.00000 0 16648023.654 -71916.285 -19336275.923 10 0 60578 42300.00000 0 18582675.631 1117126.659 -17459455.068 10 0 60578 43200.00000 0 20375574.027 2044305.336 -15244086.680 10 0 60578 44100.00000 0 21966044.624 2718254.957 -12733333.500 10 0 60578 45000.00000 0 23298386.260 3159102.238 -9976006.686 10 0 60578 45900.00000 0 24324131.170 3397347.711 -7025614.816 10 0 60578 46800.00000 0 25004019.298 3472315.559 -3939328.106 10 0 60578 47700.00000 0 25309605.944 3430237.840 -776877.694 10 0 60578 48600.00000 0 25224437.493 3322054.669 2400589.273 10 0 60578 49500.00000 0 24744747.770 3201023.155 5531677.534 10 0 60578 50400.00000 0 23879647.274 3120235.375 8555913.155 10 0 60578 51300.00000 0 22650798.178 3130148.968 11414893.320 10 0 60578 52200.00000 0 21091588.838 3276233.229 14053395.862 10 0 60578 53100.00000 0 19245841.760 3596828.590 16420428.678 10 0 60578 54000.00000 0 17166107.739 4121308.649 18470200.387 10 0 60578 54900.00000 0 14911615.527 4868621.582 20162994.935 10 0 60578 55800.00000 0 12545960.278 5846272.422 21465934.402 10 0 60578 56700.00000 0 10134624.570 7049789.927 22353616.107 10 0 60578 57600.00000 0 7742432.730 8462702.172 22808611.972 10 0 60578 58500.00000 0 5431042.183 10057024.376 22821820.252 10 0 60578 59400.00000 0 3256574.376 11794241.595 22392662.010 10 0 60578 60300.00000 0 1267482.638 13626748.487 21529117.101 10 0 60578 61200.00000 0 -497254.750 15499689.237 20247597.131 10 0 60578 62100.00000 0 -2009540.900 17353123.688 18572655.591 10 0 60578 63000.00000 0 -3253106.667 19124431.419 16536538.408 10 0 60578 63900.00000 0 -4223956.368 20750854.654 14178581.258 10 0 60578 64800.00000 0 -4930292.923 22172073.983 11544463.271 10 0 60578 65700.00000 0 -5391924.387 23332708.459 8685329.952 10 0 60578 66600.00000 0 -5639175.947 24184633.655 5656801.440 10 0 60578 67500.00000 0 -5711352.920 24689018.191 2517885.098 10 0 60578 68400.00000 0 -5654820.026 24817990.480 -670185.859 10 0 60578 69300.00000 0 -5520779.265 24555862.877 -3845163.786 10 0 60578 70200.00000 0 -5362842.318 23899859.195 -6945022.633 10 0 60578 71100.00000 0 -5234502.758 22860313.015 -9909192.212 10 0 60578 72000.00000 0 -5186618.003 21460327.214 -12679764.113 10 0 60578 72900.00000 0 -5265010.643 19734908.680 -15202643.380 10 0 60578 73800.00000 0 -5508293.519 17729615.019 -17428621.340 10 0 60578 74700.00000 0 -5946012.942 15498771.322 -19314347.012 10 0 60578 75600.00000 0 -6597190.312 13103333.440 -20823177.098 10 0 60578 76500.00000 0 -7469324.725 10608489.173 -21925887.652 10 0 60578 77400.00000 0 -8557898.890 8081099.564 -22601233.839 10 0 60578 78300.00000 0 -9846408.734 5587088.601 -22836347.818 10 0 60578 79200.00000 0 -11306914.461 3188891.050 -22626968.403 10 0 60578 80100.00000 0 -12901088.604 943064.846 -21977499.794 10 0 60578 81000.00000 0 -14581715.592 -1101833.377 -20900900.155 10 0 60578 81900.00000 0 -16294578.654 -2907022.891 -19418404.171 10 0 60578 82800.00000 0 -17980653.876 -4444852.167 -17559086.810 10 0 60578 83700.00000 0 -19578518.917 -5699677.588 -15359278.380 10 0 60578 84600.00000 0 -21026875.428 -6668234.360 -12861843.514 10 0 60578 85500.00000 0 -22267080.018 -7359487.664 -10115339.062 10 0 60579 0.00000 0 -23245578.710 -7793973.593 -7173068.002 10 0 60579 900.00000 0 -23916144.825 -8002660.566 -4092046.300 10 0 60579 1800.00000 0 -24241826.978 -8025380.749 -931906.489 10 0 60579 2700.00000 0 -24196529.150 -7908899.612 2246246.593 10 0 60579 3600.00000 0 -23766156.928 -7704704.887 5381002.816 10 0 60579 4500.00000 0 -22949283.857 -7466608.223 8411816.595 10 0 60579 5400.00000 0 -21757310.802 -7248259.747 11280158.116 10 0 60579 6300.00000 0 -20214111.901 -7100679.120 13930625.285 10 0 60579 7200.00000 0 -18355181.497 -7069905.707 16311996.507 10 0 60579 8100.00000 0 -16226316.531 -7194865.524 18378205.589 10 0 60579 9000.00000 0 -13881887.580 -7505543.760 20089221.405 10 0 60579 9900.00000 0 -11382768.329 -8021539.297 21411816.519 10 0 60579 10800.00000 0 -8794007.042 -8751062.250 22320210.721 10 0 60579 11700.00000 0 -6182334.200 -9690417.703 22796577.395 10 0 60579 12600.00000 0 -3613607.326 -10823999.142 22831402.693 10 0 60579 13500.00000 0 -1150297.015 -12124794.357 22423689.743 10 0 60579 14400.00000 0 1150883.071 -13555385.635 21581002.596 10 0 60579 15300.00000 0 3241104.624 -15069405.448 20319347.169 10 0 60579 16200.00000 0 5081223.290 -16613389.691 18662889.285 10 0 60579 17100.00000 0 6643172.122 -18128953.414 16643512.877 10 0 60579 18000.00000 0 7910890.830 -19555199.674 14300224.550 10 0 60579 18900.00000 0 8880750.774 -20831261.394 11678413.985 10 0 60579 19800.00000 0 9561456.625 -21898869.467 8828982.851 10 0 60579 20700.00000 0 9973427.742 -22704838.082 5807358.191 10 0 60579 21600.00000 0 10147684.643 -23203360.851 2672409.166 10 0 60579 22500.00000 0 10124287.528 -23358018.542 -514711.279 10 0 60579 23400.00000 0 9950393.484 -23143411.001 -3691776.007 10 0 60579 24300.00000 0 9678016.006 -22546341.682 -6796719.138 10 0 60579 25200.00000 0 9361583.798 -21566502.403 -9768871.046 10 0 60579 26100.00000 0 9055404.817 -20216627.604 -12550166.279 10 0 60579 27000.00000 0 8811145.840 -18522110.536 -15086298.470 10 0 60579 27900.00000 0 8675437.055 -16520097.281 -17327797.560 10 0 60579 28800.00000 0 8687705.559 -14258097.231 -19231006.608 10 0 60579 29700.00000 0 8878331.297 -11792169.530 -20758938.095 10 0 60579 30600.00000 0 9267204.563 -9184762.985 -21881992.653 10 0 60579 31500.00000 0 9862746.382 -6502301.555 -22578526.440 10 0 60579 32400.00000 0 10661432.739 -3812617.736 -22835257.069 10 0 60579 33300.00000 0 11647841.723 -1182341.930 -22647501.534 10 0 60579 34200.00000 0 12795220.156 1325643.011 -22019243.257 10 0 60579 35100.00000 0 14066544.226 3654576.523 -20963028.883 10 0 60579 36000.00000 0 15416027.866 5755926.811 -19499698.763 10 0 60579 36900.00000 0 16791014.070 7591143.441 -17657958.235 10 0 60579 37800.00000 0 18134168.679 9132985.839 -15473799.638 10 0 60579 38700.00000 0 19385883.989 10366375.581 -12989787.592 10 0 60579 39600.00000 0 20486791.313 11288740.350 -10254222.405 10 0 60579 40500.00000 0 21380277.632 11909838.677 -7320198.397 10 0 60579 41400.00000 0 22014901.769 12251075.911 -4244575.572 10 0 60579 42300.00000 0 22346610.108 12344342.740 -1086884.414 10 0 60579 43200.00000 0 22340660.482 12230426.916 2091815.590 10 0 60579 44100.00000 0 21973175.131 11957066.078 5230102.469 10 0 60579 45000.00000 0 21232258.951 11576723.864 8267361.925 10 0 60579 45900.00000 0 20118637.153 11144182.531 11144939.918 10 0 60579 46800.00000 0 18645785.994 10714052.410 13807256.974 10 0 60579 47700.00000 0 16839550.853 10338301.701 16202864.297 10 0 60579 48600.00000 0 14737266.581 10063909.085 18285422.899 10 0 60579 49500.00000 0 12386415.141 9930736.540 20014588.331 10 0 60579 50400.00000 0 9842874.214 9969710.886 21356785.085 10 0 60579 51300.00000 0 7168826.996 10201390.046 22285856.568 10 0 60579 52200.00000 0 4430417.176 10634974.609 22783578.449 10 0 60579 53100.00000 0 1695243.712 11267807.301 22840025.221 10 0 60579 54000.00000 0 -970203.148 12085383.187 22453782.137 10 0 60579 54900.00000 0 -3503060.219 13061872.654 21631997.068 10 0 60579 55800.00000 0 -5846460.912 14161137.992 20390269.418 10 0 60579 56700.00000 0 -7951658.144 15338203.836 18752376.086 10 0 60579 57600.00000 0 -9779812.273 16541122.399 16749837.335 10 0 60579 58500.00000 0 -11303368.822 17713157.256 14421328.686 10 0 60579 59400.00000 0 -12506967.370 18795195.285 11811948.076 10 0 60579 60300.00000 0 -13387842.207 19728285.677 8972350.839 10 0 60579 61200.00000 0 -13955696.675 20456198.524 5957768.292 10 0 60579 62100.00000 0 -14232055.450 20927893.668 2826928.689 10 0 60579 63000.00000 0 -14249121.624 21099793.382 -359098.046 10 0 60579 63900.00000 0 -14048187.014 20937760.221 -3538108.029 10 0 60579 64800.00000 0 -13677663.837 20418693.615 -6647998.267 10 0 60579 65700.00000 0 -13190822.753 19531674.992 -9628002.325 10 0 60579 66600.00000 0 -12643335.245 18278610.756 -12419900.206 10 0 60579 67500.00000 0 -12090727.058 16674344.321 -14969176.442 10 0 60579 68400.00000 0 -11585853.205 14746231.557 -17226101.645 10 0 60579 69300.00000 0 -11176503.925 12533197.421 -19146714.698 10 0 60579 70200.00000 0 -10903244.890 10084314.012 -20693685.337 10 0 60579 71100.00000 0 -10797584.301 7456960.772 -21837039.919 10 0 60579 72000.00000 0 -10880544.884 4714645.344 -22554736.415 10 0 60579 72900.00000 0 -11161700.767 1924577.534 -22833078.362 10 0 60579 73800.00000 0 -11638718.919 -844901.232 -22666961.041 10 0 60579 74700.00000 0 -12297422.906 -3526925.131 -22059946.826 10 0 60579 75600.00000 0 -13112374.372 -6058639.345 -21024170.182 10 0 60579 76500.00000 0 -14047945.784 -8383558.970 -19580076.092 10 0 60579 77400.00000 0 -15059837.382 -10453654.840 -17755998.868 10 0 60579 78300.00000 0 -16096972.967 -12231081.811 -15587591.184 10 0 60579 79200.00000 0 -17103693.734 -13689480.429 -13117115.700 10 0 60579 80100.00000 0 -18022157.343 -14814800.951 -10392614.068 10 0 60579 81000.00000 0 -18794841.492 -15605618.714 -7466969.989 10 0 60579 81900.00000 0 -19367047.317 -16072930.909 -4396884.691 10 0 60579 82800.00000 0 -19689298.491 -16239446.093 -1241784.528 10 0 60579 83700.00000 0 -19719536.544 -16138398.505 1937318.707 10 0 60579 84600.00000 0 -19425021.661 -15811938.450 5078993.574 10 0 60579 85500.00000 0 -18783860.460 -15309167.108 8122559.454 10 0 60580 0.00000 0 -17786097.839 -14683898.372 11009240.221 10 0 60580 900.00000 0 -16434327.023 -13992240.740 13683281.901 10 0 60580 1800.00000 0 -14743793.615 -13290100.554 16093010.501 10 0 60580 2700.00000 0 -12741986.687 -12630708.904 18191816.366 10 0 60580 3600.00000 0 -10467733.706 -12062275.345 19939043.622 10 0 60580 4500.00000 0 -7969834.371 -11625865.315 21300770.324 10 0 60580 5400.00000 0 -5305287.620 -11353589.457 22250464.816 10 0 60580 6300.00000 0 -2537182.497 -11267180.523 22769506.027 10 0 60580 7200.00000 0 267662.538 -11377017.943 22847557.430 10 0 60580 8100.00000 0 3041216.769 -11681642.096 22482786.710 10 0 60580 9000.00000 0 5716808.863 -12167780.452 21681925.550 10 0 60580 9900.00000 0 8231648.039 -12810886.779 20460166.547 10 0 60580 10800.00000 0 10529191.181 -13576173.305 18840897.073 10 0 60580 11700.00000 0 12561257.783 -14420095.025 16855272.842 10 0 60580 12600.00000 0 14289804.198 -15292225.937 14541637.079 10 0 60580 13500.00000 0 15688282.185 -16137449.830 11944794.427 10 0 60580 14400.00000 0 16742523.574 -16898374.153 9115151.974 10 0 60580 15300.00000 0 17451112.472 -17517864.994 6107743.044 10 0 60580 16200.00000 0 17825228.064 -17941595.096 2981152.376 10 0 60580 17100.00000 0 17887963.703 -18120495.346 -203635.995 10 0 60580 18000.00000 0 17673150.717 -18013003.538 -3384444.497 10 0 60580 18900.00000 0 17223737.013 -17587012.426 -6499136.164 10 0 60580 19800.00000 0 16589790.216 -16821431.703 -9486850.897 10 0 60580 20700.00000 0 15826211.662 -15707295.220 -12289217.206 10 0 60580 21600.00000 0 14990260.310 -14248364.454 -14851513.413 10 0 60580 22500.00000 0 14138993.913 -12461201.287 -17123753.471 10 0 60580 23400.00000 0 13326738.164 -10374706.325 -19061674.465 10 0 60580 24300.00000 0 12602692.982 -8029142.203 -20627605.431 10 0 60580 25200.00000 0 12008778.609 -5474683.542 -21791200.083 10 0 60580 26100.00000 0 11577813.216 -2769555.437 -22530019.405 10 0 60580 27000.00000 0 11332098.840 22160.384 -22829953.577 10 0 60580 27900.00000 0 11282474.363 2832958.954 -22685476.407 10 0 60580 28800.00000 0 11427873.880 5594482.655 -22099729.006 10 0 60580 29700.00000 0 11755406.928 8240121.610 -21084433.004 10 0 60580 30600.00000 0 12240954.896 10707536.062 -19659636.956 10 0 60580 31500.00000 0 12850256.115 12940996.816 -17853302.734 10 0 60580 32400.00000 0 13540431.863 14893448.224 -15700741.586 10 0 60580 33300.00000 0 14261887.351 16528210.279 -13243912.147 10 0 60580 34200.00000 0 14960506.515 17820251.778 -10530595.053 10 0 60580 35100.00000 0 15580047.737 18756984.625 -7613460.771 10 0 60580 36000.00000 0 16064639.752 19338549.277 -4549048.925 10 0 60580 36900.00000 0 16361273.327 19577582.293 -1396678.764 10 0 60580 37800.00000 0 16422184.951 19498478.212 1782688.658 10 0 60580 38700.00000 0 16207033.528 19136178.504 4927615.457 10 0 60580 39600.00000 0 15684779.891 18534539.478 7977357.609 10 0 60580 40500.00000 0 14835191.284 17744347.948 10873020.136 10 0 60580 41400.00000 0 13649908.379 16821067.517 13558676.028 10 0 60580 42300.00000 0 12133030.223 15822409.047 15982428.867 10 0 60580 43200.00000 0 10301192.072 14805825.826 18097400.280 10 0 60580 44100.00000 0 8183131.521 13826036.809 19862624.638 10 0 60580 45000.00000 0 5818759.050 12932680.207 21243834.919 10 0 60580 45900.00000 0 3257769.065 12168194.377 22214125.447 10 0 60580 46800.00000 0 557846.188 11566013.936 22754479.112 10 0 60580 47700.00000 0 -2217461.872 11149156.402 22854148.694 10 0 60580 48600.00000 0 -5001119.690 10929259.008 22510884.225 10 0 60580 49500.00000 0 -7725131.989 10906107.136 21731000.668 10 0 60580 50400.00000 0 -10323121.295 11067675.861 20529282.815 10 0 60580 51300.00000 0 -12732849.867 11390684.921 18928727.062 10 0 60580 52200.00000 0 -14898581.813 11841646.042 16960122.684 10 0 60580 53100.00000 0 -16773186.891 12378360.696 14661478.351 10 0 60580 54000.00000 0 -18319897.487 12951806.912 12077302.861 10 0 60580 54900.00000 0 -19513643.990 13508336.672 9257752.308 10 0 60580 55800.00000 0 -20341910.996 13992091.335 6257659.162 10 0 60580 56700.00000 0 -20805076.776 14347532.357 3135461.764 10 0 60580 57600.00000 0 -20916220.387 14521978.727 -47944.598 10 0 60580 58500.00000 0 -20700403.692 14468041.408 -3230411.454 10 0 60580 59400.00000 0 -20193458.451 14145848.957 -6349770.572 10 0 60580 60300.00000 0 -19440330.326 13524967.059 -9345070.769 10 0 60580 61200.00000 0 -18493051.167 12585927.833 -12157791.488 10 0 60580 62100.00000 0 -17408427.258 11321301.671 -14733007.064 10 0 60580 63000.00000 0 -16245543.612 9736264.370 -17020476.747 10 0 60580 63900.00000 0 -15063192.211 7848634.373 -18975637.471 10 0 60580 64800.00000 0 -13917335.036 5688378.103 -20560478.837 10 0 60580 65700.00000 0 -12858710.688 3296604.333 -21744282.816 10 0 60580 66600.00000 0 -11930686.585 724090.568 -22504213.878 10 0 60580 67500.00000 0 -11167447.395 -1970595.778 -22825748.928 10 0 60580 68400.00000 0 -10592595.318 -4723301.769 -22702939.985 10 0 60580 69300.00000 0 -10218219.632 -7466725.822 -22138506.193 10 0 60580 70200.00000 0 -10044472.503 -10132984.941 -21143755.286 10 0 60580 71100.00000 0 -10059666.317 -12656205.336 -19738338.006 10 0 60580 72000.00000 0 -10240885.715 -14975029.182 -17949842.113 10 0 60580 72900.00000 0 -10555085.915 -17034934.493 -15813235.531 10 0 60580 73800.00000 0 -10960628.791 -18790273.503 -13370170.817 10 0 60580 74700.00000 0 -11409190.245 -20205947.051 -10668165.446 10 0 60580 75600.00000 0 -11847957.355 -21258648.043 -7759674.480 10 0 60580 76500.00000 0 -12222022.308 -21937624.991 -4701073.777 10 0 60580 77400.00000 0 -12476872.365 -22244936.609 -1551573.368 10 0 60580 78300.00000 0 -12560871.703 -22195189.338 1627918.515 10 0 60580 79200.00000 0 -12427631.634 -21814770.781 4775959.599 10 0 60580 80100.00000 0 -12038170.685 -21140612.517 7831744.501 10 0 60580 81000.00000 0 -11362774.830 -20218534.729 10736261.191 10 0 60580 81900.00000 0 -10382480.589 -19101241.880 13433412.170 10 0 60580 82800.00000 0 -9090119.151 -17846052.636 15871080.308 10 0 60580 83700.00000 0 -7490877.500 -16512457.792 18002120.408 10 0 60580 84600.00000 0 -5602352.065 -15159606.771 19785258.815 10 0 60580 85500.00000 0 -3454090.926 -13843826.132 21185884.959 99